Retour au catalogue

STARLINK-3961

ActifCommunicationsVLEO
NORAD 52637·PAYLOAD·🇺🇸 United States

Lancé May 14, 2022 depuis Cape Canaveral Space Force Station

Loading…

Prochains Passages (prochaines 24 heures)

TLE

FraisSource: CelesTrak SupGP

Époque: Sep 14, 2026, 20:52 UTC

1 52637C 22052AR  26257.86993056 -.00021769  00000+0 -70022-3 0  2579
2 52637  53.1568 117.2181 0001366  84.3462  34.2026 15.31704733    19

Suivez STARLINK-3961 en temps réel avec AllMySat

Download on the App Store